This demonstration page uses our WeatherBlox Daily Observations layout. Learn more.

Left ArrowRight Arrow

44.31136, -96.79839

Hourly Observations for July 6, 2015

Temp ( °F °C ) Dew Point ( °F °C ) Humidity (%) Winds ( mph kmh ) Pressure ( in mb ) Visibility ( mi km ) Precip ( " mm )
12:15 am 00:15 Mostly Clear 68 20 64 18 88 88 SSE 9 15 29.74 1007 10 16 0.00 0.00
12:35 am 00:35 Mostly Clear 68 20 64 18 88 88 S 3 6 29.77 1008 10 16 0.00 0.00
12:55 am 00:55 Partly Cloudy 68 20 64 18 88 88 N 7 11 29.80 1009 10 16 0.00 0.00
1:15 am 01:15 Partly Cloudy 68 20 63 17 83 83 NNE 5 7 29.80 1009 10 16 0.00 0.00
1:35 am 01:35 Mostly Cloudy 70 21 64 18 83 83 N 9 15 29.77 1008 10 16 0.01 0.25
1:55 am 01:55 Mostly Cloudy 70 21 64 18 83 83 N 9 15 29.80 1009 10 16 0.02 0.51
2:15 am 02:15 Mostly Cloudy 70 21 64 18 83 83 N 10 17 29.83 1010 10 16 0.01 0.25
2:35 am 02:35 Cloudy 70 21 64 18 83 83 NNW 9 15 29.83 1010 10 16 0.03 0.76
2:55 am 02:55 Cloudy 68 20 64 18 88 88 NW 9 15 29.83 1010 10 16 0.07 1.78
3:15 am 03:15 Cloudy 68 20 64 18 88 88 NW 10 17 29.83 1010 10 16 0.05 1.27
3:35 am 03:35 Cloudy 68 20 64 18 88 88 NNW 12 19 29.83 1010 10 16 0.10 2.54
3:55 am 03:55 Cloudy 68 20 64 18 88 88 NNW 10 17 29.83 1010 10 16 0.14 3.56
4:15 am 04:15 Cloudy 68 20 64 18 88 88 NW 9 15 29.85 1011 9 14 0.03 0.76
4:35 am 04:35 Cloudy 68 20 63 17 83 83 N 8 13 29.83 1010 10 16 0.05 1.27
4:55 am 04:55 Cloudy 66 19 63 17 88 88 N 10 17 29.83 1010 10 16 0.06 1.52
5:15 am 05:15 Cloudy 66 19 63 17 88 88 N 12 19 29.80 1009 10 16 0.01 0.25
5:35 am 05:35 Cloudy 66 19 63 17 88 88 N 12 19 29.80 1009 10 16 0.01 0.25
5:55 am 05:55 Cloudy 66 19 63 17 88 88 N 18 30 29.77 1008 10 16 0.01 0.25
6:15 am 06:15 Cloudy 66 19 63 17 88 88 N 21 33 29.80 1009 8 13 0.00 0.00
6:35 am 06:35 Cloudy 66 19 63 17 88 88 N 16 26 29.80 1009 5 8 0.00 0.00
6:55 am 06:55 Cloudy 66 19 63 17 88 88 N 14 22 29.83 1010 5 8 0.00 0.00
7:35 am 07:35 Cloudy 66 19 63 17 88 88 N 13 20 29.85 1011 5 8 0.00 0.00
7:55 am 07:55 Cloudy 66 19 63 17 88 88 N 12 19 29.88 1012 4 6 0.00 0.00
8:15 am 08:15 Cloudy 66 19 61 16 83 83 NNW 13 20 29.88 1012 5 8 0.01 0.25
8:35 am 08:35 Cloudy 66 19 61 16 83 83 NNW 15 24 29.91 1013 3 5 0.01 0.25
8:55 am 08:55 Cloudy 64 18 61 16 88 88 N 14 22 29.94 1014 3 5 0.01 0.25
9:15 am 09:15 Cloudy 64 18 61 16 88 88 N 12 19 29.94 1014 3 5 0.01 0.25
9:35 am 09:35 Cloudy 64 18 61 16 88 88 N 12 19 29.94 1014 3 5 0.01 0.25
9:55 am 09:55 Cloudy 64 18 61 16 88 88 N 14 22 29.97 1015 3 4 0.01 0.25
10:15 am 10:15 Cloudy 64 18 61 16 88 88 N 14 22 29.97 1015 3 4 0.00 0.00
10:35 am 10:35 Cloudy 64 18 61 16 88 88 N 13 20 29.97 1015 3 4 0.00 0.00
10:55 am 10:55 Cloudy 64 18 59 15 83 83 N 14 22 29.97 1015 2 3 0.00 0.00
11:15 am 11:15 Cloudy 64 18 59 15 83 83 N 16 26 29.97 1015 2 3 0.00 0.00
11:35 am 11:35 Cloudy 64 18 59 15 83 83 N 14 22 30.00 1016 3 4 0.00 0.00
11:55 am 11:55 Mostly Cloudy 64 18 61 16 88 88 N 14 22 30.00 1016 3 4 0.00 0.00
12:15 pm 12:15 Mostly Cloudy 66 19 59 15 78 78 N 22 35 30.00 1016 3 4 0.00 0.00
12:35 pm 12:35 Mostly Cloudy 68 20 59 15 73 73 N 21 33 29.97 1015 2 3 0.00 0.00
12:55 pm 12:55 Partly Cloudy 68 20 57 14 69 69 N 20 31 29.97 1015 2 3 0.00 0.00
1:15 pm 13:15 Partly Cloudy 68 20 57 14 69 69 N 25 41 30.00 1016 2 3 0.00 0.00
1:35 pm 13:35 Partly Cloudy 68 20 57 14 69 69 N 20 31 30.00 1016 2 3 0.00 0.00
1:55 pm 13:55 Partly Cloudy 68 20 59 15 73 73 N 18 30 30.00 1016 2 3 0.00 0.00
2:15 pm 14:15 Mostly Sunny 70 21 59 15 69 69 N 21 33 30.00 1016 3 4 0.00 0.00
2:35 pm 14:35 Mostly Sunny 70 21 59 15 69 69 N 21 33 30.00 1016 3 5 0.00 0.00
2:55 pm 14:55 Mostly Sunny 70 21 57 14 64 64 NNW 20 31 30.00 1016 4 6 0.00 0.00
3:15 pm 15:15 Mostly Sunny 70 21 57 14 64 64 N 20 31 30.00 1016 4 6 0.00 0.00
3:35 pm 15:35 Partly Cloudy 70 21 57 14 64 64 N 16 26 30.00 1016 5 8 0.00 0.00
3:55 pm 15:55 Mostly Cloudy 70 21 55 13 60 60 N 15 24 30.00 1016 5 8 0.00 0.00
4:15 pm 16:15 Mostly Sunny 70 21 55 13 60 60 N 20 31 30.00 1016 5 8 0.00 0.00
4:35 pm 16:35 Partly Cloudy 70 21 55 13 60 60 N 20 31 30.00 1016 6 10 0.00 0.00
4:55 pm 16:55 Mostly Cloudy 70 21 55 13 60 60 N 20 31 30.03 1017 7 11 0.00 0.00
5:15 pm 17:15 Mostly Cloudy 70 21 55 13 60 60 N 20 31 30.03 1017 8 13 0.00 0.00
5:35 pm 17:35 Mostly Sunny 70 21 55 13 60 60 N 22 35 30.03 1017 8 13 0.00 0.00
5:55 pm 17:55 Partly Cloudy 70 21 54 12 57 57 N 21 33 30.03 1017 7 11 0.00 0.00
6:15 pm 18:15 Mostly Sunny 68 20 54 12 60 60 N 16 26 30.06 1018 7 11 0.00 0.00
6:35 pm 18:35 Partly Cloudy 66 19 54 12 64 64 N 20 31 30.06 1018 7 11 0.00 0.00
6:55 pm 18:55 Mostly Sunny 66 19 52 11 60 60 NNE 14 22 30.06 1018 8 13 0.00 0.00
7:15 pm 19:15 Sunny 66 19 52 11 60 60 N 12 19 30.06 1018 8 13 0.00 0.00
7:35 pm 19:35 Sunny 66 19 52 11 60 60 NNE 10 17 30.06 1018 8 13 0.00 0.00
7:55 pm 19:55 Sunny 64 18 52 11 64 64 NNE 7 11 30.06 1018 9 14 0.00 0.00
8:15 pm 20:15 Sunny 64 18 52 11 64 64 NNE 9 15 30.06 1018 9 14 0.00 0.00
8:35 pm 20:35 Sunny 63 17 52 11 68 68 NNE 7 11 30.06 1018 9 14 0.00 0.00
8:55 pm 20:55 Sunny 63 17 52 11 68 68 NNE 6 9 30.09 1019 9 14 0.00 0.00
9:15 pm 21:15 Clear 61 16 52 11 72 72 N 6 9 30.09 1019 9 14 0.00 0.00
9:35 pm 21:35 Clear 61 16 52 11 72 72 NNE 8 13 30.09 1019 9 14 0.00 0.00
9:55 pm 21:55 Clear 61 16 50 10 68 68 NE 6 9 30.12 1020 10 16 0.00 0.00
10:15 pm 22:15 Clear 59 15 50 10 72 72 NE 7 11 30.15 1021 9 14 0.00 0.00
10:35 pm 22:35 Clear 59 15 50 10 72 72 NE 6 9 30.15 1021 10 16 0.00 0.00
10:55 pm 22:55 Clear 57 14 50 10 77 77 NNE 6 9 30.15 1021 10 16 0.00 0.00
11:15 pm 23:15 Clear 57 14 48 9 72 72 NNE 5 7 30.15 1021 10 16 0.00 0.00
11:35 pm 23:35 Clear 55 13 48 9 77 77 N 3 6 30.15 1021 10 16 0.00 0.00
11:55 pm 23:55 Clear 54 12 48 9 82 82 NNW 5 7 30.15 1021 10 16 0.00 0.00

Powered by AerisWeather